CW3363 Weather Reports


Display with metric or nautical units.
time (UTC)temp
F
wind
direction
speed
MPH
gust
MPH
rain 1hr
in
rain 24hr
in
rain mn
in
humidity
%
barometer
mb
20260508061821 69 83 0.0 3.0 0.00 0.00 0.00 82 1013.6
20260508061329 69 83 0.0 3.0 0.00 0.00 0.00 82 1013.6
20260508060856 69 83 0.0 3.0 0.00 0.00 0.00 81 1013.6
20260508060322 69 88 1.0 3.0 0.00 0.00 0.00 81 1013.8
20260508055829 69 77 0.0 2.0 0.00 0.00 0.00 81 1013.8
20260508055353 69 355 0.0 2.0 0.00 0.00 0.00 80 1013.8
20260508054836 69 355 1.0 2.0 0.00 0.00 0.00 80 1013.5
20260508054324 69 73 0.0 1.0 0.00 0.00 0.00 80 1013.5
20260508053849 69 73 0.0 2.0 0.00 0.00 0.00 80 1013.5
20260508053332 70 73 0.0 5.0 0.00 0.00 0.00 80 1013.4
20260508052837 70 91 0.0 5.0 0.00 0.00 0.00 79 1013.4
20260508052402 70 85 0.0 7.0 0.00 0.00 0.00 79 1013.4
20260508051824 70 73 2.0 7.0 0.00 0.00 0.00 79 1013.7
20260508051329 70 82 1.0 4.0 0.00 0.00 0.00 79 1013.7
20260508050855 70 70 1.0 5.0 0.00 0.00 0.00 78 1013.7
20260508050338 70 70 0.0 5.0 0.00 0.00 0.00 78 1013.8
20260508045821 70 106 1.0 5.0 0.00 0.00 0.00 77 1013.8
20260508045344 70 104 1.0 2.0 0.00 0.00 0.00 77 1013.8
20260508044832 70 16 0.0 5.0 0.00 0.00 0.00 77 1014.1
20260508044337 70 89 1.0 5.0 0.00 0.00 0.00 77 1014.1
20260508043843 70 89 2.0 4.0 0.00 0.00 0.00 76 1014.1
20260508043327 70 52 0.0 3.0 0.00 0.00 0.00 76 1014.0
20260508042831 70 115 0.0 6.0 0.00 0.00 0.00 76 1014.0
20260508042334 70 70 1.0 6.0 0.00 0.00 0.00 76 1014.0
20260508041839 71 82 2.0 3.0 0.00 0.00 0.00 75 1013.8
20260508041323 71 357 1.0 3.0 0.00 0.00 0.00 75 1013.8
20260508040827 71 87 2.0 3.0 0.00 0.00 0.00 75 1013.8
20260508040332 71 88 1.0 2.0 0.00 0.00 0.00 75 1013.8
20260508035837 71 114 0.0 3.0 0.00 0.00 0.00 74 1013.8
20260508035325 71 60 1.0 5.0 0.00 0.00 0.00 74 1013.8
20260508034832 71 74 2.0 7.0 0.00 0.00 0.00 74 1013.4
20260508034335 71 49 1.0 6.0 0.00 0.00 0.00 73 1013.4
20260508033839 71 93 2.0 6.0 0.00 0.00 0.00 73 1013.4
20260508033327 71 65 2.0 6.0 0.00 0.00 0.00 73 1014.1
20260508032831 71 90 2.0 5.0 0.00 0.00 0.00 73 1014.1
20260508032338 71 87 2.0 5.0 0.00 0.00 0.00 73 1014.1
20260508031823 72 79 0.0 5.0 0.00 0.00 0.00 73 1014.4
20260508031328 72 61 1.0 3.0 0.00 0.00 0.00 73 1014.4
20260508030831 72 62 0.0 3.0 0.00 0.00 0.00 73 1014.4
20260508030335 72 62 0.0 5.0 0.00 0.00 0.00 73 1014.4
20260508025839 72 82 2.0 6.0 0.00 0.00 0.00 72 1014.4
20260508025328 72 91 2.0 6.0 0.00 0.00 0.00 72 1014.4
20260508024853 72 37 1.0 3.0 0.00 0.00 0.00 72 1014.4
20260508024336 72 70 2.0 3.0 0.00 0.00 0.00 72 1014.4
20260508023902 72 49 0.0 3.0 0.00 0.00 0.00 72 1014.4
20260508023346 72 70 2.0 7.0 0.00 0.00 0.00 72 1014.3
20260508022833 72 11 1.0 2.0 0.00 0.00 0.00 73 1014.3
20260508022318 72 85 0.0 0.0 0.00 0.00 0.00 73 1014.3
20260508021825 72 85 0.0 3.0 0.00 0.00 0.00 73 1014.3
20260508021331 72 85 1.0 4.0 0.00 0.00 0.00 73 1014.3
20260508020857 72 78 1.0 4.0 0.00 0.00 0.00 73 1014.3
20260508020341 73 43 1.0 2.0 0.00 0.00 0.00 74 1014.2
20260508015825 73 75 1.0 2.0 0.00 0.00 0.00 75 1014.2
20260508015333 73 75 0.0 1.0 0.00 0.00 0.00 74 1014.2
20260508014837 73 75 0.0 1.0 0.00 0.00 0.00 74 1014.2
20260508014326 73 75 0.0 1.0 0.00 0.00 0.00 74 1014.2
20260508013831 74 75 0.0 1.0 0.00 0.00 0.00 74 1014.2
20260508013336 74 75 0.0 1.0 0.00 0.00 0.00 74 1014.2
20260508012820 74 75 0.0 1.0 0.00 0.00 0.00 74 1014.2
20260508012328 74 75 0.0 2.0 0.00 0.00 0.00 72 1014.2
20260508011832 74 75 0.0 4.0 0.00 0.00 0.00 72 1013.8
20260508011356 74 75 0.0 5.0 0.00 0.00 0.00 72 1013.8
20260508010839 74 63 1.0 5.0 0.00 0.00 0.00 72 1013.8
20260508010325 74 119 1.0 3.0 0.00 0.00 0.00 72 1013.9
20260508005828 74 89 1.0 3.0 0.00 0.00 0.00 72 1013.9
20260508005333 75 99 0.0 2.0 0.00 0.00 0.00 73 1013.9
20260508004837 75 99 0.0 0.0 0.00 0.00 0.00 72 1013.9
20260508004325 75 99 0.0 4.0 0.00 0.00 0.00 72 1013.9
20260508003850 75 99 0.0 4.0 0.00 0.00 0.00 72 1013.9
20260508003335 75 71 1.0 4.0 0.00 0.00 0.00 72 1014.2
20260508002822 75 78 1.0 4.0 0.00 0.00 0.00 72 1014.2
20260508002326 75 92 0.0 2.0 0.00 0.00 0.00 72 1014.2
20260508001831 75 92 0.0 2.0 0.00 0.00 0.00 72 1014.3
20260508001334 75 339 0.0 2.0 0.00 0.00 0.00 72 1014.3
20260508000901 75 54 1.0 3.0 0.00 0.00 0.00 72 1014.3
20260508000327 75 340 1.0 3.0 0.00 0.00 0.00 72 1014.3
20260507235834 76 302 2.0 3.0 0.00 0.00 0.00 72 1014.3
20260507235339 76 80 0.0 2.0 0.00 0.00 0.00 72 1014.3
20260507234825 76 53 1.0 3.0 0.00 0.00 0.00 72 1014.4
20260507234330 76 53 1.0 3.0 0.00 0.00 0.00 71 1014.4
20260507233836 76 30 2.0 4.0 0.00 0.00 0.00 71 1014.4
20260507233324 76 325 0.0 4.0 0.00 0.00 0.00 72 1014.2
20260507232832 76 56 1.0 4.0 0.00 0.00 0.00 71 1014.2
20260507232336 76 42 0.0 4.0 0.00 0.00 0.00 71 1014.2
20260507231840 76 64 0.0 4.0 0.00 0.00 0.00 71 1013.8
20260507231323 76 7 2.0 4.0 0.00 0.00 0.00 71 1013.8
20260507230830 76 84 1.0 4.0 0.00 0.00 0.00 71 1013.8
20260507230354 77 80 2.0 4.0 0.00 0.00 0.00 70 1013.8
20260507225836 77 352 1.0 3.0 0.00 0.00 0.00 70 1013.8
20260507225341 77 89 1.0 6.0 0.00 0.00 0.00 71 1013.8
20260507224824 77 9 1.0 6.0 0.00 0.00 0.00 70 1013.4
20260507224329 77 6 1.0 4.0 0.00 0.00 0.00 70 1013.4
20260507223832 77 11 1.0 4.0 0.00 0.00 0.00 71 1013.4
20260507223340 77 307 2.0 5.0 0.00 0.00 0.00 70 1013.5
20260507222824 77 80 1.0 5.0 0.00 0.00 0.00 70 1013.5
20260507222329 78 319 1.0 5.0 0.00 0.00 0.00 70 1013.5
20260507221833 78 79 1.0 5.0 0.00 0.00 0.00 70 1013.8
20260507221337 78 355 1.0 3.0 0.00 0.00 0.00 70 1013.8
20260507220826 78 9 2.0 4.0 0.00 0.00 0.00 70 1013.8
20260507220330 78 76 2.0 6.0 0.00 0.00 0.00 71 1013.8
20260507215838 78 72 2.0 6.0 0.00 0.00 0.00 70 1013.8
20260507215325 78 53 1.0 5.0 0.00 0.00 0.00 70 1013.8
20260507214831 78 12 1.0 5.0 0.00 0.00 0.00 69 1014.0
20260507214333 79 323 3.0 5.0 0.00 0.00 0.00 70 1014.0
20260507213823 79 11 3.0 5.0 0.00 0.00 0.00 70 1014.0
20260507213327 78 96 2.0 5.0 0.00 0.00 0.00 71 1014.0
20260507212831 78 342 3.0 6.0 0.00 0.00 0.00 71 1014.0
20260507212335 78 336 3.0 6.0 0.00 0.00 0.00 69 1014.0
20260507211858 79 329 2.0 6.0 0.00 0.00 0.00 68 1014.2
20260507211340 79 94 3.0 6.0 0.00 0.00 0.00 69 1014.2
20260507210823 79 8 4.0 6.0 0.00 0.00 0.00 69 1014.2
20260507210326 78 86 2.0 6.0 0.00 0.00 0.00 69 1014.3
20260507205830 79 59 1.0 6.0 0.00 0.00 0.00 71 1014.3
20260507205333 78 29 2.0 4.0 0.00 0.00 0.00 71 1014.3
20260507204838 78 59 1.0 9.0 0.00 0.00 0.00 71 1014.3
20260507204325 78 283 3.0 9.0 0.00 0.00 0.00 70 1014.3
20260507203830 78 97 3.0 7.0 0.00 0.00 0.00 70 1014.3
20260507203337 78 72 2.0 9.0 0.00 0.00 0.00 70 1014.5
20260507202900 78 295 2.0 9.0 0.00 0.00 0.00 71 1014.5
20260507202322 78 16 3.0 7.0 0.00 0.00 0.00 71 1014.5
20260507201827 77 79 2.0 5.0 0.00 0.00 0.00 71 1014.8
20260507201351 77 334 1.0 6.0 0.00 0.00 0.00 73 1014.8
20260507200834 76 70 3.0 6.0 0.00 0.00 0.00 72 1014.8
20260507200337 76 278 1.0 6.0 0.00 0.00 0.00 73 1014.6
20260507195821 76 70 2.0 7.0 0.00 0.00 0.00 73 1014.6
20260507195325 76 76 4.0 7.0 0.00 0.00 0.00 73 1014.6
20260507194832 76 53 1.0 6.0 0.00 0.00 0.00 73 1014.8
20260507194335 76 324 4.0 6.0 0.00 0.00 0.00 73 1014.8
20260507193823 75 58 2.0 5.0 0.00 0.00 0.00 75 1014.8
20260507193348 74 89 1.0 6.0 0.00 0.00 0.00 75 1015.4
20260507192830 74 31 2.0 6.0 0.00 0.00 0.00 75 1015.4
20260507192333 74 329 3.0 6.0 0.00 0.00 0.00 74 1015.4
20260507191836 74 10 3.0 6.0 0.00 0.00 0.00 74 1015.8
20260507191323 73 20 2.0 6.0 0.00 0.00 0.00 76 1015.8
20260507190831 73 1 1.0 6.0 0.00 0.00 0.00 77 1015.8
20260507190334 72 68 3.0 9.0 0.00 0.00 0.00 76 1015.9
20260507185838 72 323 4.0 9.0 0.00 0.00 0.00 76 1015.9
20260507185322 72 9 2.0 5.0 0.00 0.00 0.00 76 1015.9
20260507184829 73 21 3.0 6.0 0.00 0.00 0.00 76 1015.9
20260507184333 72 33 2.0 6.0 0.00 0.00 0.00 77 1015.9
20260507183824 72 357 4.0 10.0 0.00 0.00 0.00 77 1015.9
20260507183328 71 31 4.0 10.0 0.00 0.00 0.00 77 1016.2
20260507182854 71 54 3.0 6.0 0.00 0.00 0.00 78 1016.2
20260507182340 71 324 3.0 9.0 0.00 0.00 0.00 78 1016.2
20260507181824 71 42 1.0 9.0 0.00 0.00 0.00 78 1016.0
20260507181331 71 337 2.0 9.0 0.00 0.00 0.00 78 1016.0
20260507180834 70 331 3.0 9.0 0.00 0.00 0.00 78 1016.0
20260507180358 70 99 4.0 9.0 0.00 0.00 0.00 78 1016.4
20260507175841 70 307 3.0 7.0 0.00 0.00 0.00 78 1016.4
20260507175326 70 49 2.0 7.0 0.00 0.00 0.00 79 1016.4
20260507174832 69 36 1.0 5.0 0.00 0.00 0.00 80 1016.6
20260507174337 69 16 3.0 11.0 0.00 0.00 0.00 80 1016.6
20260507173828 69 77 3.0 11.0 0.00 0.00 0.00 80 1016.6
20260507173333 69 358 3.0 6.0 0.00 0.00 0.00 80 1016.7
20260507172858 68 92 1.0 7.0 0.00 0.00 0.00 80 1016.7
20260507172341 69 9 3.0 7.0 0.00 0.00 0.00 80 1016.7
20260507171825 69 353 2.0 5.0 0.00 0.00 0.00 81 1016.9
20260507171328 68 53 2.0 7.0 0.00 0.00 0.00 81 1016.9
20260507170831 68 322 2.0 7.0 0.00 0.00 0.00 80 1016.9
20260507170356 68 358 1.0 6.0 0.00 0.00 0.00 81 1016.9
20260507165836 68 319 3.0 4.0 0.00 0.00 0.00 81 1016.9
20260507165324 68 6 2.0 5.0 0.00 0.00 0.00 81 1016.9
20260507164848 68 80 3.0 5.0 0.00 0.00 0.00 81 1016.7
20260507164331 68 338 2.0 6.0 0.00 0.00 0.00 81 1016.7
20260507163835 68 325 4.0 6.0 0.00 0.00 0.00 80 1016.7
20260507163326 68 85 3.0 6.0 0.00 0.00 0.00 81 1016.4
20260507162830 68 321 3.0 5.0 0.00 0.00 0.00 81 1016.4
20260507162334 67 10 2.0 6.0 0.00 0.00 0.00 81 1016.4
20260507161836 67 280 2.0 6.0 0.00 0.00 0.00 83 1016.0
20260507161340 66 47 3.0 6.0 0.00 0.00 0.00 83 1016.0
20260507160824 66 35 1.0 9.0 0.00 0.00 0.00 84 1016.0
20260507160350 65 36 2.0 9.0 0.00 0.00 0.00 83 1016.4
20260507155853 65 85 2.0 9.0 0.00 0.00 0.00 84 1016.4
20260507155337 65 80 2.0 10.0 0.00 0.00 0.00 84 1016.4
20260507154840 64 17 3.0 10.0 0.00 0.00 0.00 84 1016.5
20260507154324 64 66 3.0 9.0 0.00 0.00 0.00 84 1016.5
20260507153827 64 342 3.0 6.0 0.00 0.00 0.00 85 1016.5
20260507153353 64 56 3.0 6.0 0.00 0.00 0.00 85 1016.5
20260507152836 64 68 2.0 5.0 0.00 0.00 0.00 85 1016.5
20260507152324 64 215 1.0 6.0 0.00 0.00 0.00 85 1016.5
20260507151828 64 109 1.0 6.0 0.00 0.00 0.00 86 1016.5
20260507151334 64 58 2.0 5.0 0.00 0.00 0.00 86 1016.5
20260507150837 64 347 2.0 4.0 0.00 0.00 0.00 86 1016.5
20260507150401 64 104 1.0 7.0 0.00 0.00 0.00 86 1016.8
20260507145822 64 49 2.0 9.0 0.00 0.00 0.00 86 1016.8
20260507145346 64 44 2.0 9.0 0.00 0.00 0.00 86 1016.8
20260507144849 64 76 1.0 10.0 0.00 0.00 0.00 87 1016.5
20260507144333 63 68 2.0 10.0 0.00 0.00 0.00 86 1016.5
20260507143835 64 79 2.0 7.0 0.00 0.00 0.00 86 1016.5
20260507143339 64 14 2.0 6.0 0.00 0.00 0.00 86 1015.9
20260507142843 64 142 2.0 9.0 0.00 0.00 0.00 86 1015.9
20260507142329 64 360 1.0 11.0 0.00 0.00 0.00 86 1015.9
20260507141834 64 71 2.0 11.0 0.00 0.00 0.00 86 1015.8
20260507141358 64 240 2.0 6.0 0.00 0.00 0.00 86 1015.8
20260507140824 64 64 2.0 6.0 0.00 0.00 0.00 86 1015.8
20260507140328 63 47 2.0 9.0 0.00 0.00 0.00 87 1016.0
20260507135850 63 305 4.0 9.0 0.00 0.00 0.00 87 1016.0
20260507135334 63 355 3.0 9.0 0.00 0.00 0.00 87 1016.0
20260507134837 63 43 3.0 9.0 0.00 0.00 0.00 87 1016.5
20260507134401 63 240 1.0 7.0 0.00 0.00 0.00 88 1016.5
20260507133825 63 60 3.0 7.0 0.00 0.00 0.00 88 1016.5
20260507133329 63 10 4.0 6.0 0.00 0.00 0.00 89 1016.7
20260507132832 63 347 3.0 7.0 0.00 0.00 0.00 89 1016.7
20260507132341 63 295 2.0 7.0 0.00 0.00 0.00 89 1016.7
20260507131824 63 22 2.0 4.0 0.00 0.00 0.00 89 1016.6
20260507131328 63 57 2.0 5.0 0.00 0.00 0.00 89 1016.6
20260507130853 63 74 1.0 5.0 0.00 0.00 0.00 88 1016.6
20260507130336 63 334 2.0 9.0 0.00 0.00 0.00 88 1016.4
20260507125823 63 344 3.0 9.0 0.00 0.00 0.00 88 1016.4
20260507125327 64 87 1.0 6.0 0.00 0.00 0.00 88 1016.4
20260507124852 64 343 2.0 6.0 0.00 0.00 0.00 88 1015.9
20260507124337 64 331 2.0 6.0 0.00 0.00 0.00 88 1015.9
20260507123840 64 360 2.0 6.0 0.00 0.00 0.00 88 1015.9
20260507123324 64 299 2.0 8.0 0.00 0.00 0.00 88 1015.5
20260507122828 64 314 2.0 10.0 0.00 0.00 0.00 88 1015.5
20260507122352 64 330 1.0 10.0 0.00 0.00 0.00 88 1015.5
20260507121836 64 351 2.0 5.0 0.00 0.00 0.00 88 1015.3
20260507121339 65 35 2.0 5.0 0.00 0.00 0.00 88 1015.3
20260507120824 65 331 1.0 5.0 0.00 0.00 0.00 88 1015.3
20260507120328 65 88 2.0 5.0 0.00 0.00 0.00 88 1015.0
20260507115834 65 48 2.0 5.0 0.00 0.00 0.00 88 1015.0
20260507115321 65 357 2.0 5.0 0.00 0.00 0.00 88 1015.0
20260507114846 65 2 1.0 5.0 0.00 0.00 0.00 88 1014.9
20260507114349 65 36 3.0 5.0 0.00 0.00 0.00 88 1014.9
20260507113855 65 352 2.0 6.0 0.00 0.00 0.00 88 1014.9
20260507113337 65 355 3.0 6.0 0.00 0.00 0.00 87 1014.4
20260507112820 65 15 2.0 4.0 0.00 0.00 0.00 88 1014.4
20260507112328 66 76 1.0 4.0 0.00 0.00 0.00 87 1014.4
20260507111835 66 54 2.0 4.0 0.00 0.00 0.00 87 1014.6
20260507111338 66 30 1.0 4.0 0.00 0.00 0.00 88 1014.6
20260507110821 66 44 1.0 3.0 0.00 0.00 0.00 88 1014.6
20260507110329 66 339 1.0 3.0 0.00 0.00 0.00 88 1014.3
20260507105832 66 310 2.0 3.0 0.00 0.00 0.00 88 1014.3
20260507105339 66 56 1.0 4.0 0.00 0.00 0.00 87 1014.3
20260507104828 66 9 1.0 4.0 0.00 0.00 0.00 87 1013.9
20260507104351 66 9 1.0 2.0 0.00 0.00 0.00 87 1013.9
20260507103839 66 2 0.0 1.0 0.00 0.00 0.00 88 1013.9
20260507103322 66 2 0.0 2.0 0.00 0.00 0.00 88 1014.2
20260507102827 66 94 1.0 4.0 0.00 0.00 0.00 88 1014.2
20260507102332 66 38 2.0 4.0 0.00 0.00 0.00 88 1014.2
20260507101836 66 66 0.0 3.0 0.00 0.00 0.00 88 1013.8
20260507101324 66 54 2.0 4.0 0.00 0.00 0.00 88 1013.8
20260507100831 66 55 0.0 4.0 0.00 0.00 0.00 88 1013.8
20260507100336 66 62 1.0 3.0 0.00 0.00 0.00 88 1013.8
20260507095839 66 77 2.0 5.0 0.00 0.00 0.00 88 1013.8
20260507095327 66 59 1.0 5.0 0.00 0.00 0.00 87 1013.8
20260507094851 66 59 3.0 5.0 0.00 0.00 0.00 87 1013.7
20260507094335 66 67 2.0 4.0 0.00 0.00 0.00 88 1013.7
20260507093841 66 7 1.0 3.0 0.00 0.00 0.00 87 1013.7
20260507093325 66 59 1.0 4.0 0.00 0.00 0.00 88 1013.3
20260507092828 66 34 1.0 5.0 0.00 0.00 0.00 87 1013.3
20260507092332 66 54 0.0 5.0 0.00 0.00 0.00 87 1013.3
20260507091836 66 34 2.0 5.0 0.00 0.00 0.00 87 1013.4
20260507091323 66 10 1.0 4.0 0.00 0.00 0.00 87 1013.4
20260507090827 66 63 1.0 6.0 0.00 0.00 0.00 87 1013.4
20260507090331 66 25 2.0 6.0 0.00 0.00 0.00 87 1013.4
20260507085834 66 51 1.0 3.0 0.00 0.00 0.00 87 1013.4
20260507085341 66 64 1.0 5.0 0.00 0.00 0.00 87 1013.4
20260507084825 66 86 3.0 5.0 0.00 0.00 0.00 87 1013.7
20260507084331 66 352 1.0 4.0 0.00 0.00 0.00 87 1013.7
20260507083839 67 64 2.0 4.0 0.00 0.00 0.00 87 1013.7
20260507083324 67 321 1.0 4.0 0.00 0.00 0.00 87 1013.3
20260507082826 66 62 1.0 4.0 0.00 0.00 0.00 87 1013.3
20260507082330 66 338 2.0 6.0 0.00 0.00 0.00 87 1013.3
20260507081838 67 321 3.0 6.0 0.00 0.00 0.00 86 1013.4
20260507081341 67 319 1.0 4.0 0.00 0.00 0.00 87 1013.4
20260507080825 67 342 2.0 4.0 0.00 0.00 0.00 86 1013.4
20260507080332 67 326 1.0 4.0 0.00 0.00 0.00 86 1013.4
20260507075855 67 332 0.0 5.0 0.00 0.00 0.00 86 1013.4
20260507075337 67 52 1.0 5.0 0.00 0.00 0.00 86 1013.4
20260507074823 67 57 1.0 5.0 0.00 0.00 0.00 86 1013.8
20260507074330 67 30 0.0 5.0 0.00 0.00 0.00 86 1013.8
20260507073837 67 15 1.0 5.0 0.00 0.00 0.00 86 1013.8
20260507073323 67 333 3.0 5.0 0.00 0.00 0.00 86 1013.8
20260507072848 67 330 1.0 4.0 0.00 0.00 0.00 86 1013.8
20260507072330 67 10 1.0 5.0 0.00 0.00 0.00 86 1013.8
20260507071837 67 9 1.0 5.0 0.00 0.00 0.00 85 1014.1
20260507071323 67 333 1.0 5.0 0.00 0.00 0.00 85 1014.1
20260507070824 67 10 2.0 8.0 0.00 0.00 0.00 85 1014.1
20260507070328 67 9 1.0 8.0 0.00 0.00 0.00 85 1013.8
20260507065831 67 322 3.0 7.0 0.00 0.00 0.00 85 1013.8
20260507065355 67 4 1.0 5.0 0.00 0.00 0.00 85 1013.8
20260507064837 67 285 2.0 6.0 0.00 0.00 0.00 85 1014.0
20260507064323 67 53 3.0 6.0 0.00 0.00 0.00 85 1014.0
20260507063826 67 335 2.0 6.0 0.00 0.00 0.00 85 1014.0
20260507063351 67 295 3.0 5.0 0.00 0.00 0.00 85 1013.9
20260507062839 67 338 2.0 5.0 0.00 0.00 0.00 85 1013.9
20260507062324 67 9 2.0 7.0 0.00 0.00 0.00 84 1013.9